Location: *
(52.2090°N, 4.1550°W)
Time: 18:52:09
(UTC+00:00)

Cosmos 44 Rocket - Pass Details

Date: 19 July 2019
Orbit: 651 x 739 km, 65.1° (Epoch: 24 August)

Event Time Altitude Azimuth Distance (km) Brightness Sun altitude
Rises 22:13:20 0° 234° (SW) 3,152 6.6 -11.7°
Reaches altitude 10° 22:15:46 10° 238° (WSW) 2,224 5.9 -11.9°
Maximum altitude 22:20:47 59° 318° (NW) 836 4.1 -12.3°
Drops below altitude 10° 22:25:43 10° 38° (NE) 2,186 6.2 -12.7°
Sets 22:28:06 0° 43° (NE) 3,093 6.9 -12.8°
